Home > Weather > Fremont > Past weeks

Flag for USA Past Weather in Fremont, California, USA — Yesterday and Last 2 Weeks

Now
63 °F

Clear.


Feels Like: 63 °F
Forecast: 57 / 89 °F
Wind: 3 mph from Northwest

Location: Moffett Field

Current Time: Jul 26, 2016 at 1:33:57 AM

Latest Report: Jul 26, 2016 at 12:56 AM


Visibility: 10 mi

Pressure: 29.92 "Hg

Humidity: 81%

Dew Point: 57 °F

Location of FremontLocation

Past Weather in Fremont — Graph

°F

Fremont Temperature Yesterday

Maximum temperature yesterday: 79 °F (at 2:56 PM)
Minimum temperature yesterday: 58 °F (at 3:56 AM)
Average temperature yesterday: 68 °F

High & Low Weather Summary for the Past Weeks

 TemperatureHumidityPressure
High83 °F (Jul 13, 2:56 PM)90% (Jul 15, 1:56 AM)30.14 "Hg (Jul 15, 1:56 AM)
Low55 °F (Jul 19, 5:56 AM)38% (Jul 13, 12:56 PM)29.85 "Hg (Jul 24, 3:56 AM)
Average66 °F66%29.99 "Hg
* Reported Jul 10 11:56 PM — Jul 25 11:56 PM, Fremont, Weather by CustomWeather, © 2016

Note: Actual official high and low records may vary slightly from our data, if they occured in-between our weather recording intervals... More about our weather records

Advertising

Fremont Weather History for the Previous 24 Hours

Scroll right to see more
 ConditionsComfort  
Time TempWeatherWind HumidityBarometerVisibility
11:56 PM
Mon, Jul 25
64 °FClear.3 mph78%29.92 "Hg10 mi
10:56 PM64 °FClear.3 mph75%29.93 "Hg10 mi
9:56 PM66 °FClear.3 mph70%29.92 "Hg10 mi
8:56 PM67 °FSunny.5 mph71%29.91 "Hg10 mi
7:56 PM71 °FSunny.7 mph59%29.90 "Hg10 mi
6:56 PM75 °FSunny.8 mph54%29.90 "Hg10 mi
5:56 PM76 °FSunny.9 mph50%29.90 "Hg10 mi
4:56 PM78 °FSunny.10 mph48%29.90 "Hg10 mi
3:56 PM77 °FSunny.13 mph52%29.91 "Hg10 mi
2:56 PM79 °FSunny.12 mph47%29.91 "Hg10 mi
1:56 PM78 °FSunny.10 mph50%29.93 "Hg10 mi
12:56 PM77 °FSunny.9 mph50%29.94 "Hg10 mi
11:56 AM74 °FSunny.8 mph57%29.95 "Hg10 mi
10:56 AM72 °FSunny.6 mph55%29.95 "Hg10 mi
9:56 AM70 °FSunny.6 mph57%29.95 "Hg10 mi
8:56 AM65 °FSunny.3 mph70%29.96 "Hg10 mi
7:56 AM62 °FPartly sunny.No wind78%29.96 "Hg9 mi
6:56 AM60 °FOvercast.3 mph80%29.96 "Hg10 mi
5:56 AM59 °FLow clouds.3 mph87%29.95 "Hg10 mi
4:56 AM59 °FOvercast.6 mph87%29.94 "Hg10 mi
3:56 AM58 °FOvercast.7 mph87%29.93 "Hg10 mi
2:56 AM59 °FClear.7 mph84%29.93 "Hg10 mi
1:56 AM59 °FClear.6 mph84%29.93 "Hg10 mi
Weather by CustomWeather, © 2016

See weather overviewHow to use our weather pages